FENGYUN 1C DEB, 35165

Orbit data source: Space-Track

FENGYUN 1C DEB, 35165 is space debris in SSO originally from a launch on Mon, 10 May 1999 UTC launched from the Taiyaun Space Center, China (TSC). Fengyun 1C debris stems from the Chinese weather satellite Fengyun-1C, which was intentionally destroyed by a Chinese anti-satellite missile in 2007. This event dramatically increased the amount of space debris, with thousands of trackable fragments posing hazards to satellites and human spaceflight. The Fengyun 1C debris cloud has become a focal point in discussions about space sustainability and the need for international regulations to prevent the creation of new debris.

Loading next visibility...
Identifier
35165, 1999-025DMV
Orbit
SSO
Country
Flag of CNCN / PRC
Related business
Manufacturer
Unknown
Mission
Spacecraft
Bus & Motor
Unknown
Mass
Unknown
Launch date (UTC)
1999-05-10 (27 years ago)
Launch vehicle
Unknown
Launch site
Taiyaun Space Center, China (TSC)
Object type
Payload
Rocket body
Debris
Shape & HBR
Unknown shape, 0.1 m
Radar Cross Section
Small (<0.1 m²)

Expand to show TLE details & history
Last TLE update: 1 day ago

TLE from 1 day ago
0 FENGYUN 1C DEB
1 35165U 99025DMV 26150.25898430  .00005774  00000-0  20134-2 0  9993
2 35165  98.8755 251.7380 0018090 278.6122  81.3013 14.35626963921379
Epoch: 2026-05-30T06:12Z
TLE epoch observation values (Epoch: 2026-05-30T06:12:56.243Z)
Latitude
-0.00002°
Longitude
-89.27393°
Altitude
773.98 km
Speed
7.468 km/s
True Right ascension
16h 46m 57s
True Declination
0° 00' 00"
Sunlit
Object was in full shadow at epoch
Visualization orbit readout
Latitude
Unknown
Longitude
Unknown
Altitude
Unknown
Speed
Unknown
Apparent Right ascension
Unknown
Apparent Declination
Unknown
Sunlit
N/A
Visualization observer readout
Local Sidereal Time
22:42:22
Azimuth
Unknown
Elevation
Unknown
Doppler factor
Unknown
Orbital elements
Apogee altitude
783.061 km
Perigee altitude
757.198 km
Semi-major axis
7,148.266 km
Eccentricity
0.00181
Inclination
98.8755°
RAAN
251.738°
Arg. of periapsis
278.6122°
True anomaly
81.50628°
Mean anomaly
81.3013°
Eccentric anomaly
81.40378°
Mean motion
3.59122 °/min
Orbital period
100.24 mins
BSTAR
0.0020134
Loading maneuver chart data...
Computing Atmospheric mass density...
Loading historical data...
Loading historical data...
Loading historical data...
Loading historical data...
Loading historical data...
Loading historical data...
Loading historical data...

Documentation

Showing up to 5 results
|